User: anonymous   Login
Location: Unspecified
(0.0000°N, 0.0000°E)
Time: 20:39:51
(UTC+00:00)
Language:

COSMOS 2451 - Orbit

View from above orbital plane
View from above orbital plane
View from above satellite
View from above satellite

Ground track
Ground track

The orbit data is extracted from the following two-line orbital elements,

1 35498U 09036A   17172.71759174 +.00000031 +00000-0 +15519-3 0  9994
2 35498 082.4876 328.9965 0007515 138.4683 221.6970 12.40815579360603
Epoch (UTC): 21 June 2017 17:13:19
Eccentricity: 0.0007515
inclination: 82.4876°
perigee height: 1497 km
apogee height: 1509 km
right ascension of ascending node: 328.9965°
argument of perigee: 138.4683°
revolutions per day: 12.40815579
mean anomaly at epoch: 221.6970°
orbit number at epoch: 36060

The dashed part of the orbit path shows where the satellite is in the earth's shadow,  

DLR